Home   Weather   Hebron   Past weeks

Flag for Palestinian Territories Past Weather in Hebron, West Bank, Palestinian Territories — Yesterday and Last 2 Weeks

Now
57 °F

Clear.


Feels Like: 57 °F
Forecast: 53 / 71 °F
Wind: 3 mph from North

Location: Ben Gurion International Airport

Current Time: Apr 26, 2017 at 5:41:32 am

Latest Report: Apr 26, 2017 at 4:50 am


Visibility: 6 mi

Pressure: 29.98 "Hg (26.95 "Hg at 894m altitude)

Humidity: 82%

Dew Point: 52 °F

Location of HebronLocation

Past Weather in Hebron — Graph

°F

Hebron Temperature Yesterday

Maximum temperature yesterday: 73 °F (at 12:50 pm)
Minimum temperature yesterday: 54 °F (at 6:20 am)
Average temperature yesterday: 65 °F

High & Low Weather Summary for the Past Weeks

 TemperatureHumidityPressure
High102 °F (Apr 22, 12:20 pm)88% (Apr 14, 3:20 am)30.12 "Hg (Apr 14, 3:20 am)
Low54 °F (Apr 17, 4:50 am)8% (Apr 22, 11:20 am)29.65 "Hg (Apr 13, 1:50 pm)
Average69 °F56%29.96 "Hg
* Reported Apr 11 3:20 am — Apr 26 3:50 am, Hebron, Weather by CustomWeather, © 2017

Note: Actual official high and low records may vary slightly from our data, if they occured in-between our weather recording intervals... More about our weather records

Advertising

Hebron Weather History for the Previous 24 Hours

Scroll right to see more
 ConditionsComfort  
Time TempWeatherWind HumidityBarometerVisibility
3:50 am
Wed, Apr 26
57 °FClear.5 mph77%29.98 "Hg6 mi
3:20 am59 °FClear.3 mph82%29.98 "Hg10 mi
2:50 am59 °FClear.6 mph77%29.98 "Hg10 mi
2:20 am59 °FClear.5 mph77%30.01 "Hg10 mi
1:50 am59 °FClear.3 mph82%30.01 "Hg10 mi
1:20 am59 °FClear.1 mph82%30.01 "Hg10 mi
12:50 am61 °FClear.1 mph77%30.01 "Hg10 mi
12:20 am61 °FClear.2 mph77%30.01 "Hg10 mi
11:50 pm
Tue, Apr 25
63 °FClear.2 mph77%30.01 "Hg10 mi
11:20 pm63 °FClear.6 mph77%30.01 "Hg10 mi
10:50 pm63 °FClear.7 mph77%30.01 "Hg10 mi
10:20 pm63 °FClear.5 mph73%30.01 "Hg10 mi
9:50 pm64 °FClear.6 mph73%30.01 "Hg10 mi
9:20 pm64 °FClear.7 mph73%30.01 "Hg10 mi
8:50 pm64 °FClear.7 mph68%30.01 "Hg10 mi
8:20 pm66 °FClear.8 mph64%30.01 "Hg10 mi
7:50 pm66 °FClear.9 mph64%30.01 "Hg10 mi
7:20 pm66 °FClear.9 mph60%30.01 "Hg10 mi
6:50 pm68 °FSunny.9 mph56%30.01 "Hg10 mi
6:20 pm70 °FSunny.12 mph57%30.01 "Hg10 mi
5:50 pm70 °FSunny.16 mph53%30.01 "Hg10 mi
5:20 pm72 °FSunny.17 mph47%30.01 "Hg10 mi
4:50 pm72 °FSunny.15 mph44%30.01 "Hg10 mi
4:20 pm72 °FSunny.17 mph47%30.01 "Hg10 mi
3:50 pm72 °FSunny.17 mph47%30.01 "Hg10 mi
3:20 pm72 °FSunny.17 mph50%30.01 "Hg10 mi
2:50 pm72 °FSunny.17 mph50%30.04 "Hg10 mi
2:20 pm72 °FSunny.17 mph50%30.04 "Hg10 mi
1:50 pm73 °FSunny.16 mph47%30.04 "Hg10 mi
1:20 pm73 °FSunny.15 mph47%30.04 "Hg10 mi
12:50 pm73 °FSunny.13 mph47%30.07 "Hg10 mi
12:20 pm72 °FSunny.13 mph47%30.07 "Hg10 mi
11:50 am72 °FSunny.10 mph47%30.07 "Hg10 mi
11:20 am72 °FSunny.10 mph38%30.07 "Hg10 mi
10:50 am70 °FSunny.10 mph43%30.09 "Hg10 mi
10:20 am68 °FSunny.9 mph49%30.09 "Hg10 mi
9:50 am66 °FSunny.9 mph52%30.09 "Hg10 mi
9:20 am66 °FSunny.9 mph52%30.09 "Hg10 mi
8:50 am64 °FSunny.7 mph60%30.09 "Hg10 mi
8:20 am63 °FSunny.2 mph64%30.09 "Hg10 mi
7:50 am61 °FSunny.2 mph63%30.09 "Hg10 mi
7:20 am57 °FPassing clouds.3 mph72%30.09 "Hg6 mi
6:50 am55 °FPassing clouds.5 mph77%30.09 "Hg6 mi
6:20 am54 °FPassing clouds.1 mph77%30.07 "Hg5 mi
5:20 am55 °FPassing clouds.3 mph77%30.07 "Hg6 mi
Weather by CustomWeather, © 2017

See weather overviewHow to use our weather pages